Year,Month,Day,Hour,Minute,Value (Times are PST for windspeed in km/hr)
2006,02,04,00,00,3.60
2006,02,04,00,01,15.90
2006,02,04,00,02,10.80
2006,02,04,00,03,9.10
2006,02,04,00,04,7.70
2006,02,04,00,05,7.20
2006,02,04,00,06,4.30
2006,02,04,00,07,5.20
2006,02,04,00,08,10.30
2006,02,04,00,09,6.80
2006,02,04,00,10,8.70
2006,02,04,00,11,6.10
2006,02,04,00,12,9.00
2006,02,04,00,13,10.80
2006,02,04,00,14,5.80
2006,02,04,00,15,12.50
2006,02,04,00,16,12.70
2006,02,04,00,17,7.20
2006,02,04,00,18,6.70
2006,02,04,00,19,6.60
2006,02,04,00,20,6.90
2006,02,04,00,21,6.50
2006,02,04,00,22,5.80
2006,02,04,00,23,5.00
2006,02,04,00,24,7.20
2006,02,04,00,25,12.70
2006,02,04,00,26,4.60
2006,02,04,00,27,6.30
2006,02,04,00,28,5.00
2006,02,04,00,29,7.20
2006,02,04,00,30,3.20
2006,02,04,00,31,3.20
2006,02,04,00,32,6.20
2006,02,04,00,33,8.00
2006,02,04,00,34,11.90
2006,02,04,00,35,12.90
2006,02,04,00,36,9.80
2006,02,04,00,37,12.10
2006,02,04,00,38,8.70
2006,02,04,00,39,15.50
2006,02,04,00,40,11.50
2006,02,04,00,41,11.40
2006,02,04,00,42,12.10
2006,02,04,00,43,8.30
2006,02,04,00,44,7.60
2006,02,04,00,45,8.80
2006,02,04,00,46,18.20
2006,02,04,00,47,13.90
2006,02,04,00,48,11.30
2006,02,04,00,49,11.90
2006,02,04,00,50,8.70
2006,02,04,00,51,6.00
2006,02,04,00,52,8.30
2006,02,04,00,53,6.40
2006,02,04,00,54,5.60
2006,02,04,00,55,9.40
2006,02,04,00,56,8.00
2006,02,04,00,57,6.40
2006,02,04,00,58,4.20
2006,02,04,00,59,5.00
2006,02,04,01,00,5.50
2006,02,04,01,01,5.90
2006,02,04,01,02,8.80
2006,02,04,01,03,6.20
2006,02,04,01,04,3.30
2006,02,04,01,05,5.60
2006,02,04,01,06,3.60
2006,02,04,01,07,6.50
2006,02,04,01,08,4.00
2006,02,04,01,09,5.20
2006,02,04,01,10,5.00
2006,02,04,01,11,5.00
2006,02,04,01,12,6.40
2006,02,04,01,13,6.30
2006,02,04,01,14,6.00
2006,02,04,01,15,2.60
2006,02,04,01,16,3.60
2006,02,04,01,17,4.50
2006,02,04,01,18,3.80
2006,02,04,01,19,4.10
2006,02,04,01,20,6.90
2006,02,04,01,21,6.70
2006,02,04,01,22,4.00
2006,02,04,01,23,1.10
2006,02,04,01,24,5.30
2006,02,04,01,25,1.20
2006,02,04,01,26,1.60
2006,02,04,01,27,1.80
2006,02,04,01,28,2.30
2006,02,04,01,29,3.30
2006,02,04,01,30,3.60
2006,02,04,01,31,6.40
2006,02,04,01,32,6.10
2006,02,04,01,33,3.10
2006,02,04,01,34,2.90
2006,02,04,01,35,2.80
2006,02,04,01,36,4.50
2006,02,04,01,37,0.40
2006,02,04,01,38,2.60
2006,02,04,01,39,3.00
2006,02,04,01,40,5.10
2006,02,04,01,41,6.70
2006,02,04,01,42,5.00
2006,02,04,01,43,5.00
2006,02,04,01,44,4.30
2006,02,04,01,45,5.00
2006,02,04,01,46,4.10
2006,02,04,01,47,5.10
2006,02,04,01,48,3.10
2006,02,04,01,49,3.40
2006,02,04,01,50,0.50
2006,02,04,01,51,0.00
2006,02,04,01,52,0.10
2006,02,04,01,53,0.40
2006,02,04,01,54,1.50
2006,02,04,01,55,1.30
2006,02,04,01,56,2.00
2006,02,04,01,57,3.20
2006,02,04,01,58,1.20
2006,02,04,01,59,0.10
2006,02,04,02,00,0.50
2006,02,04,02,01,1.30
2006,02,04,02,02,1.70
2006,02,04,02,03,1.50
2006,02,04,02,04,2.10
2006,02,04,02,05,3.20
2006,02,04,02,06,2.80
2006,02,04,02,07,2.90
2006,02,04,02,08,2.40
2006,02,04,02,09,2.40
2006,02,04,02,10,4.10
2006,02,04,02,11,1.90
2006,02,04,02,12,1.80
2006,02,04,02,13,1.90
2006,02,04,02,14,0.90
2006,02,04,02,15,0.60
2006,02,04,02,16,1.80
2006,02,04,02,17,0.30
2006,02,04,02,18,0.00
2006,02,04,02,19,0.00
2006,02,04,02,20,0.00
2006,02,04,02,21,0.00
2006,02,04,02,22,0.00
2006,02,04,02,23,0.00
2006,02,04,02,24,0.00
2006,02,04,02,25,0.00
2006,02,04,02,26,0.20
2006,02,04,02,27,0.00
2006,02,04,02,28,0.00
2006,02,04,02,29,0.00
2006,02,04,02,30,1.60
2006,02,04,02,31,2.60
2006,02,04,02,32,1.10
2006,02,04,02,33,0.70
2006,02,04,02,34,1.80
2006,02,04,02,35,2.70
2006,02,04,02,36,2.80
2006,02,04,02,37,3.20
2006,02,04,02,38,2.50
2006,02,04,02,39,0.40
2006,02,04,02,40,0.10
2006,02,04,02,41,0.10
2006,02,04,02,42,3.10
2006,02,04,02,43,3.50
2006,02,04,02,44,2.60
2006,02,04,02,45,2.50
2006,02,04,02,46,2.20
2006,02,04,02,47,0.30
2006,02,04,02,48,0.50
2006,02,04,02,49,0.70
2006,02,04,02,50,0.40
2006,02,04,02,51,0.40
2006,02,04,02,52,0.00
2006,02,04,02,53,1.30
2006,02,04,02,54,1.80
2006,02,04,02,55,1.40
2006,02,04,02,56,1.20
2006,02,04,02,57,0.80
2006,02,04,02,58,1.00
2006,02,04,02,59,2.10
2006,02,04,03,00,0.60
2006,02,04,03,01,0.00
2006,02,04,03,02,0.00
2006,02,04,03,03,0.20
2006,02,04,03,04,0.30
2006,02,04,03,05,1.00
2006,02,04,03,06,1.70
2006,02,04,03,07,1.10
2006,02,04,03,08,2.80
2006,02,04,03,09,3.90
2006,02,04,03,10,8.90
2006,02,04,03,11,8.80
2006,02,04,03,12,19.50
2006,02,04,03,13,22.60
2006,02,04,03,14,24.30
2006,02,04,03,15,11.00
2006,02,04,03,16,13.60
2006,02,04,03,17,15.80
2006,02,04,03,18,16.50
2006,02,04,03,19,12.60
2006,02,04,03,20,15.00
2006,02,04,03,21,18.30
2006,02,04,03,22,17.50
2006,02,04,03,23,19.30
2006,02,04,03,24,20.90
2006,02,04,03,25,18.40
2006,02,04,03,26,18.00
2006,02,04,03,27,15.10
2006,02,04,03,28,17.40
2006,02,04,03,29,15.20
2006,02,04,03,30,11.90
2006,02,04,03,31,10.70
2006,02,04,03,32,11.80
2006,02,04,03,33,12.40
2006,02,04,03,34,12.20
2006,02,04,03,35,8.90
2006,02,04,03,36,11.50
2006,02,04,03,37,8.30
2006,02,04,03,38,11.60
2006,02,04,03,39,8.10
2006,02,04,03,40,10.40
2006,02,04,03,41,15.60
2006,02,04,03,42,13.30
2006,02,04,03,43,6.60
2006,02,04,03,44,6.40
2006,02,04,03,45,7.80
2006,02,04,03,46,7.80
2006,02,04,03,47,10.60
2006,02,04,03,48,11.30
2006,02,04,03,49,17.80
2006,02,04,03,50,13.20
2006,02,04,03,51,15.60
2006,02,04,03,52,18.70
2006,02,04,03,53,12.30
2006,02,04,03,54,21.40
2006,02,04,03,55,13.90
2006,02,04,03,56,14.80
2006,02,04,03,57,16.70
2006,02,04,03,58,14.00
2006,02,04,03,59,15.60
2006,02,04,04,00,13.60
2006,02,04,04,01,16.60
2006,02,04,04,02,15.90
2006,02,04,04,03,11.50
2006,02,04,04,04,14.60
2006,02,04,04,05,13.50
2006,02,04,04,06,18.20
2006,02,04,04,07,20.50
2006,02,04,04,08,26.00
2006,02,04,04,09,17.10
2006,02,04,04,10,17.10
2006,02,04,04,11,13.70
2006,02,04,04,12,21.90
2006,02,04,04,13,17.70
2006,02,04,04,14,18.80
2006,02,04,04,15,20.30
2006,02,04,04,16,13.50
2006,02,04,04,17,19.30
2006,02,04,04,18,12.70
2006,02,04,04,19,15.00
2006,02,04,04,20,14.60
2006,02,04,04,21,9.90
2006,02,04,04,22,14.90
2006,02,04,04,23,14.50
2006,02,04,04,24,16.20
2006,02,04,04,25,11.30
2006,02,04,04,26,15.70
2006,02,04,04,27,13.80
2006,02,04,04,28,12.70
2006,02,04,04,29,13.00
2006,02,04,04,30,11.40
2006,02,04,04,31,14.80
2006,02,04,04,32,17.60
2006,02,04,04,33,13.50
2006,02,04,04,34,16.90
2006,02,04,04,35,16.80
2006,02,04,04,36,16.70
2006,02,04,04,37,17.00
2006,02,04,04,38,15.30
2006,02,04,04,39,13.10
2006,02,04,04,40,16.70
2006,02,04,04,41,10.10
2006,02,04,04,42,9.80
2006,02,04,04,43,15.60
2006,02,04,04,44,8.30
2006,02,04,04,45,13.20
2006,02,04,04,46,12.60
2006,02,04,04,47,11.30
2006,02,04,04,48,12.10
2006,02,04,04,49,8.10
2006,02,04,04,50,8.00
2006,02,04,04,51,6.40
2006,02,04,04,52,10.80
2006,02,04,04,53,10.40
2006,02,04,04,54,12.70
2006,02,04,04,55,14.50
2006,02,04,04,56,13.30
2006,02,04,04,57,13.70
2006,02,04,04,58,9.20
2006,02,04,04,59,12.80
2006,02,04,05,00,17.10
2006,02,04,05,01,13.50
2006,02,04,05,02,17.80
2006,02,04,05,03,21.40
2006,02,04,05,04,21.70
2006,02,04,05,05,16.30
2006,02,04,05,06,19.80
2006,02,04,05,07,19.20
2006,02,04,05,08,17.30
2006,02,04,05,09,9.00
2006,02,04,05,10,9.00
2006,02,04,05,11,12.00
2006,02,04,05,12,16.90
2006,02,04,05,13,15.40
2006,02,04,05,14,19.70
2006,02,04,05,15,18.70
2006,02,04,05,16,30.50
2006,02,04,05,17,13.90
2006,02,04,05,18,13.20
2006,02,04,05,19,11.70
2006,02,04,05,20,16.30
2006,02,04,05,21,15.60
2006,02,04,05,22,16.60
2006,02,04,05,23,14.50
2006,02,04,05,24,14.50
2006,02,04,05,25,15.30
2006,02,04,05,26,18.80
2006,02,04,05,27,17.60
2006,02,04,05,28,11.40
2006,02,04,05,29,14.70
2006,02,04,05,30,13.90
2006,02,04,05,31,14.80
2006,02,04,05,32,11.00
2006,02,04,05,33,11.30
2006,02,04,05,34,12.60
2006,02,04,05,35,9.20
2006,02,04,05,36,10.20
2006,02,04,05,37,7.50
2006,02,04,05,38,14.00
2006,02,04,05,39,9.00
2006,02,04,05,40,18.80
2006,02,04,05,41,16.70
2006,02,04,05,42,17.90
2006,02,04,05,43,19.00
2006,02,04,05,44,20.30
2006,02,04,05,45,13.40
2006,02,04,05,46,14.80
2006,02,04,05,47,10.00
2006,02,04,05,48,11.20
2006,02,04,05,49,13.10
2006,02,04,05,50,15.90
2006,02,04,05,51,13.30
2006,02,04,05,52,9.40
2006,02,04,05,53,18.40
2006,02,04,05,54,16.00
2006,02,04,05,55,14.60
2006,02,04,05,56,21.10
2006,02,04,05,57,15.30
2006,02,04,05,58,10.70
2006,02,04,05,59,18.90
2006,02,04,06,00,9.10
2006,02,04,06,01,13.90
2006,02,04,06,02,11.50
2006,02,04,06,03,12.50
2006,02,04,06,04,16.90
2006,02,04,06,05,16.60
2006,02,04,06,06,21.50
2006,02,04,06,07,19.80
2006,02,04,06,08,7.70
2006,02,04,06,09,16.80
2006,02,04,06,10,11.30
2006,02,04,06,11,12.20
2006,02,04,06,12,11.80
2006,02,04,06,13,9.10
2006,02,04,06,14,11.70
2006,02,04,06,15,8.90
2006,02,04,06,16,14.20
2006,02,04,06,17,10.40
2006,02,04,06,18,13.90
2006,02,04,06,19,9.80
2006,02,04,06,20,14.30
2006,02,04,06,21,16.60
2006,02,04,06,22,16.20
2006,02,04,06,23,14.80
2006,02,04,06,24,14.30
2006,02,04,06,25,14.30
2006,02,04,06,26,15.80
2006,02,04,06,27,22.20
2006,02,04,06,28,17.00
2006,02,04,06,29,22.80
2006,02,04,06,30,15.50
2006,02,04,06,31,17.80
2006,02,04,06,32,17.40
2006,02,04,06,33,18.40
2006,02,04,06,34,22.30
2006,02,04,06,35,17.50
2006,02,04,06,36,14.50
2006,02,04,06,37,23.50
2006,02,04,06,38,18.70
2006,02,04,06,39,22.20
2006,02,04,06,40,13.20
2006,02,04,06,41,19.20
2006,02,04,06,42,24.70
2006,02,04,06,43,22.50
2006,02,04,06,44,19.00
2006,02,04,06,45,16.70
2006,02,04,06,46,20.20
2006,02,04,06,47,20.20
2006,02,04,06,48,16.70
2006,02,04,06,49,21.30
2006,02,04,06,50,14.10
2006,02,04,06,51,16.00
2006,02,04,06,52,17.10
2006,02,04,06,53,16.40
2006,02,04,06,54,18.50
2006,02,04,06,55,17.80
2006,02,04,06,56,17.40
2006,02,04,06,57,19.90
2006,02,04,06,58,16.60
2006,02,04,06,59,16.70
2006,02,04,07,00,16.30
2006,02,04,07,01,17.10
2006,02,04,07,02,11.00
2006,02,04,07,03,12.50
2006,02,04,07,04,24.80
2006,02,04,07,05,22.40
2006,02,04,07,06,16.00
2006,02,04,07,07,20.50
2006,02,04,07,08,21.40
2006,02,04,07,09,28.70
2006,02,04,07,10,20.70
2006,02,04,07,11,17.80
2006,02,04,07,12,22.90
2006,02,04,07,13,22.20
2006,02,04,07,14,30.00
2006,02,04,07,15,25.30
2006,02,04,07,16,17.00
2006,02,04,07,17,27.70
2006,02,04,07,18,23.40
2006,02,04,07,19,23.30
2006,02,04,07,20,20.50
2006,02,04,07,21,18.40
2006,02,04,07,22,19.20
2006,02,04,07,23,15.80
2006,02,04,07,24,19.50
2006,02,04,07,25,23.30
2006,02,04,07,26,20.40
2006,02,04,07,27,20.90
2006,02,04,07,28,20.70
2006,02,04,07,29,23.30
2006,02,04,07,30,20.50
2006,02,04,07,31,17.30
2006,02,04,07,32,28.20
2006,02,04,07,33,29.00
2006,02,04,07,34,21.30
2006,02,04,07,35,20.70
2006,02,04,07,36,21.70
2006,02,04,07,37,18.50
2006,02,04,07,38,17.00
2006,02,04,07,39,21.80
2006,02,04,07,40,20.40
2006,02,04,07,41,21.90
2006,02,04,07,42,15.50
2006,02,04,07,43,13.80
2006,02,04,07,44,16.60
2006,02,04,07,45,15.60
2006,02,04,07,46,15.40
2006,02,04,07,47,16.40
2006,02,04,07,48,20.70
2006,02,04,07,49,15.60
2006,02,04,07,50,20.60
2006,02,04,07,51,18.90
2006,02,04,07,52,18.60
2006,02,04,07,53,23.90
2006,02,04,07,54,21.80
2006,02,04,07,55,25.50
2006,02,04,07,56,16.90
2006,02,04,07,57,16.20
2006,02,04,07,58,13.80
2006,02,04,07,59,15.20
2006,02,04,08,00,10.40
2006,02,04,08,01,15.80
2006,02,04,08,02,15.60
2006,02,04,08,03,16.10
2006,02,04,08,04,13.20
2006,02,04,08,05,14.70
2006,02,04,08,06,15.70
2006,02,04,08,07,20.10
2006,02,04,08,08,20.20
2006,02,04,08,09,15.20
2006,02,04,08,10,16.90
2006,02,04,08,11,13.40
2006,02,04,08,12,18.50
2006,02,04,08,13,14.30
2006,02,04,08,14,14.60
2006,02,04,08,15,19.60
2006,02,04,08,16,14.10
2006,02,04,08,17,15.70
2006,02,04,08,18,13.20
2006,02,04,08,19,17.70
2006,02,04,08,20,15.50
2006,02,04,08,21,15.80
2006,02,04,08,22,13.90
2006,02,04,08,23,21.40
2006,02,04,08,24,20.50
2006,02,04,08,25,21.60
2006,02,04,08,26,18.00
2006,02,04,08,27,18.30
2006,02,04,08,28,18.70
2006,02,04,08,29,13.20
2006,02,04,08,30,17.80
2006,02,04,08,31,12.80
2006,02,04,08,32,19.60
2006,02,04,08,33,17.20
2006,02,04,08,34,14.70
2006,02,04,08,35,14.90
2006,02,04,08,36,12.90
2006,02,04,08,37,15.80
2006,02,04,08,38,14.30
2006,02,04,08,39,22.20
2006,02,04,08,40,16.40
2006,02,04,08,41,14.40
2006,02,04,08,42,18.50
2006,02,04,08,43,21.40
2006,02,04,08,44,15.10
2006,02,04,08,45,23.50
2006,02,04,08,46,16.70
2006,02,04,08,47,18.20
2006,02,04,08,48,19.20
2006,02,04,08,49,14.40
2006,02,04,08,50,16.50
2006,02,04,08,51,17.80
2006,02,04,08,52,28.20
2006,02,04,08,53,35.80
2006,02,04,08,54,32.10
2006,02,04,08,55,36.00
2006,02,04,08,56,32.70
2006,02,04,08,57,29.40
2006,02,04,08,58,26.90
2006,02,04,08,59,26.40
2006,02,04,09,00,28.20
2006,02,04,09,01,34.10
2006,02,04,09,02,25.70
2006,02,04,09,03,30.90
2006,02,04,09,04,24.00
2006,02,04,09,05,27.10
2006,02,04,09,06,26.10
2006,02,04,09,07,28.30
2006,02,04,09,08,19.80
2006,02,04,09,09,17.50
2006,02,04,09,10,29.30
2006,02,04,09,11,25.70
2006,02,04,09,12,31.70
2006,02,04,09,13,24.60
2006,02,04,09,14,21.30
2006,02,04,09,15,26.10
2006,02,04,09,16,23.30
2006,02,04,09,17,22.20
2006,02,04,09,18,20.40
2006,02,04,09,19,19.20
2006,02,04,09,20,16.80
2006,02,04,09,21,15.20
2006,02,04,09,22,25.30
2006,02,04,09,23,19.20
2006,02,04,09,24,15.50
2006,02,04,09,25,18.10
2006,02,04,09,26,24.00
2006,02,04,09,27,25.90
2006,02,04,09,28,19.20
2006,02,04,09,29,20.40
2006,02,04,09,30,22.70
2006,02,04,09,31,25.70
2006,02,04,09,32,32.30
2006,02,04,09,33,33.40
2006,02,04,09,34,37.00
2006,02,04,09,35,32.70
2006,02,04,09,36,17.50
2006,02,04,09,37,23.70
2006,02,04,09,38,26.80
2006,02,04,09,39,30.90
2006,02,04,09,40,35.50
2006,02,04,09,41,29.50
2006,02,04,09,42,19.50
2006,02,04,09,43,23.40
2006,02,04,09,44,17.60
2006,02,04,09,45,32.00
2006,02,04,09,46,33.40
2006,02,04,09,47,20.30
2006,02,04,09,48,27.40
2006,02,04,09,49,25.80
2006,02,04,09,50,23.70
2006,02,04,09,51,22.00
2006,02,04,09,52,27.90
2006,02,04,09,53,29.00
2006,02,04,09,54,30.00
2006,02,04,09,55,31.60
2006,02,04,09,56,23.60
2006,02,04,09,57,40.20
2006,02,04,09,58,35.90
2006,02,04,09,59,30.00
2006,02,04,10,00,28.70
2006,02,04,10,01,26.50
2006,02,04,10,02,30.20
2006,02,04,10,03,38.10
2006,02,04,10,04,30.00
2006,02,04,10,05,28.70
2006,02,04,10,06,27.30
2006,02,04,10,07,32.90
2006,02,04,10,08,29.80
2006,02,04,10,09,24.20
2006,02,04,10,10,30.30
2006,02,04,10,11,36.50
2006,02,04,10,12,38.10
2006,02,04,10,13,31.30
2006,02,04,10,14,30.60
2006,02,04,10,15,34.60
2006,02,04,10,16,42.50
2006,02,04,10,17,35.00
2006,02,04,10,18,38.80
2006,02,04,10,19,42.90
2006,02,04,10,20,42.20
2006,02,04,10,21,45.10
2006,02,04,10,22,47.70
2006,02,04,10,23,39.80
2006,02,04,10,24,39.50
2006,02,04,10,25,30.00
2006,02,04,10,26,24.20
2006,02,04,10,27,24.20
2006,02,04,10,28,29.50
2006,02,04,10,29,40.60
2006,02,04,10,30,22.30
2006,02,04,10,31,27.70
2006,02,04,10,32,29.00
2006,02,04,10,33,36.20
2006,02,04,10,34,39.20
2006,02,04,10,35,30.70
2006,02,04,10,36,29.10
2006,02,04,10,37,34.70
2006,02,04,10,38,26.70
2006,02,04,10,39,39.00
2006,02,04,10,40,33.00
2006,02,04,10,41,17.70
2006,02,04,10,42,22.20
2006,02,04,10,43,41.20
2006,02,04,10,44,44.50
2006,02,04,10,45,30.40
2006,02,04,10,46,33.60
2006,02,04,10,47,41.80
2006,02,04,10,48,36.10
2006,02,04,10,49,45.50
2006,02,04,10,50,40.30
2006,02,04,10,51,36.80
2006,02,04,10,52,38.10
2006,02,04,10,53,33.00
2006,02,04,10,54,29.60
2006,02,04,10,55,35.20
2006,02,04,10,56,27.60
2006,02,04,10,57,20.90
2006,02,04,10,58,27.40
2006,02,04,10,59,28.00
2006,02,04,11,00,27.90
2006,02,04,11,01,27.90
2006,02,04,11,02,32.00
2006,02,04,11,03,31.80
2006,02,04,11,04,47.80
2006,02,04,11,05,41.00
2006,02,04,11,06,39.70
2006,02,04,11,07,40.20
2006,02,04,11,08,35.40
2006,02,04,11,09,35.50
2006,02,04,11,10,35.10
2006,02,04,11,11,30.50
2006,02,04,11,12,42.10
2006,02,04,11,13,39.40
2006,02,04,11,14,35.50
2006,02,04,11,15,36.20
2006,02,04,11,16,38.90
2006,02,04,11,17,32.30
2006,02,04,11,18,31.80
2006,02,04,11,19,30.40
2006,02,04,11,20,34.10
2006,02,04,11,21,27.50
2006,02,04,11,22,27.20
2006,02,04,11,23,31.70
2006,02,04,11,24,21.80
2006,02,04,11,25,22.70
2006,02,04,11,26,41.90
2006,02,04,11,27,47.20
2006,02,04,11,28,38.30
2006,02,04,11,29,38.90
2006,02,04,11,30,35.90
2006,02,04,11,31,32.60
2006,02,04,11,32,40.20
2006,02,04,11,33,41.50
2006,02,04,11,34,41.00
2006,02,04,11,35,29.80
2006,02,04,11,36,32.00
2006,02,04,11,37,33.90
2006,02,04,11,38,44.90
2006,02,04,11,39,42.70
2006,02,04,11,40,40.70
2006,02,04,11,41,38.80
2006,02,04,11,42,30.40
2006,02,04,11,43,35.70
2006,02,04,11,44,36.10
2006,02,04,11,45,35.20
2006,02,04,11,46,37.10
2006,02,04,11,47,38.50
2006,02,04,11,48,41.10
2006,02,04,11,49,27.60
2006,02,04,11,50,48.80
2006,02,04,11,51,45.20
2006,02,04,11,52,39.00
2006,02,04,11,53,32.60
2006,02,04,11,54,41.10
2006,02,04,11,55,41.10
2006,02,04,11,56,35.40
2006,02,04,11,57,38.60
2006,02,04,11,58,38.50
2006,02,04,11,59,32.50
2006,02,04,12,00,36.30
2006,02,04,12,01,46.60
2006,02,04,12,02,37.30
2006,02,04,12,03,42.30
2006,02,04,12,04,30.70
2006,02,04,12,05,45.80
2006,02,04,12,06,39.80
2006,02,04,12,07,45.30
2006,02,04,12,08,32.30
2006,02,04,12,09,46.80
2006,02,04,12,10,44.80
2006,02,04,12,11,40.70
2006,02,04,12,13,38.30
2006,02,04,14,16,48.90
2006,02,04,14,17,44.80
2006,02,04,14,18,40.30
2006,02,04,14,19,35.10
2006,02,04,14,20,28.90
2006,02,04,14,21,33.40
2006,02,04,14,22,39.20
2006,02,04,14,23,37.80
2006,02,04,14,24,39.10
2006,02,04,14,25,29.20
2006,02,04,14,26,31.70
2006,02,04,14,27,44.00
2006,02,04,14,28,33.40
2006,02,04,14,29,39.50
2006,02,04,14,30,45.00
2006,02,04,14,31,36.50
2006,02,04,14,32,40.40
2006,02,04,14,33,38.10
2006,02,04,14,34,35.70
2006,02,04,14,35,38.60
2006,02,04,14,36,41.20
2006,02,04,14,37,40.70
2006,02,04,14,38,36.00
2006,02,04,14,39,42.00
2006,02,04,14,40,43.20
2006,02,04,14,41,46.50
2006,02,04,14,42,41.00
2006,02,04,14,43,50.20
2006,02,04,14,44,43.50
2006,02,04,14,45,50.10
2006,02,04,14,46,36.90
2006,02,04,14,47,48.80
2006,02,04,14,48,44.80
2006,02,04,14,49,53.90
2006,02,04,14,50,41.60
2006,02,04,14,51,38.00
2006,02,04,14,52,34.90
2006,02,04,14,53,36.10
2006,02,04,14,54,36.10
2006,02,04,14,55,33.40
2006,02,04,14,56,36.20
2006,02,04,14,57,34.30
2006,02,04,14,58,38.60
2006,02,04,14,59,47.90
2006,02,04,15,00,32.30
2006,02,04,15,01,40.20
2006,02,04,15,02,43.40
2006,02,04,15,03,41.40
2006,02,04,15,04,38.80
2006,02,04,15,05,67.60
2006,02,04,15,06,40.40
2006,02,04,15,07,37.70
2006,02,04,15,08,37.90
2006,02,04,15,09,50.10
2006,02,04,15,10,43.50
2006,02,04,15,11,37.00
2006,02,04,15,12,46.20
2006,02,04,15,13,34.20
2006,02,04,15,14,40.90
2006,02,04,15,15,36.10
2006,02,04,15,16,43.20
2006,02,04,15,17,42.90
2006,02,04,15,18,44.60
2006,02,04,15,19,43.50
2006,02,04,15,20,44.50
2006,02,04,15,21,40.90
2006,02,04,15,22,43.10
2006,02,04,15,23,50.70
2006,02,04,15,24,42.80
2006,02,04,15,25,32.90
2006,02,04,15,26,41.90
2006,02,04,15,27,41.30
2006,02,04,15,28,42.70
2006,02,04,15,29,38.40
2006,02,04,15,30,49.00
2006,02,04,15,31,51.40
2006,02,04,15,32,55.10
2006,02,04,15,33,47.00
2006,02,04,15,34,45.80
2006,02,04,15,35,49.60
2006,02,04,15,36,43.30
2006,02,04,15,37,41.80
2006,02,04,15,38,41.00
2006,02,04,15,39,42.10
2006,02,04,15,40,58.00
2006,02,04,15,41,51.60
2006,02,04,15,42,44.60
2006,02,04,15,43,46.50
2006,02,04,15,44,33.90
2006,02,04,15,45,36.00
2006,02,04,15,46,42.50
2006,02,04,15,47,39.10
2006,02,04,15,48,42.10
2006,02,04,15,49,47.50
2006,02,04,15,50,39.10
2006,02,04,15,51,51.40
2006,02,04,15,52,51.20
2006,02,04,15,53,39.40
2006,02,04,15,54,35.80
2006,02,04,15,55,48.20
2006,02,04,15,56,40.50
2006,02,04,15,57,42.80
2006,02,04,15,58,57.30
2006,02,04,15,59,47.40
2006,02,04,16,00,51.90
2006,02,04,16,01,41.70
2006,02,04,16,02,41.80
2006,02,04,16,03,52.70
2006,02,04,16,04,40.10
2006,02,04,16,05,50.60
2006,02,04,16,06,55.00
2006,02,04,16,07,60.40
2006,02,04,16,08,63.40
2006,02,04,16,09,45.20
2006,02,04,16,10,51.00
2006,02,04,16,11,42.00
2006,02,04,16,12,35.40
2006,02,04,16,13,45.00
2006,02,04,16,14,38.20
2006,02,04,16,15,47.50
2006,02,04,16,16,44.50
2006,02,04,16,17,53.20
2006,02,04,16,18,40.30
2006,02,04,16,19,48.30
2006,02,04,16,20,54.60
2006,02,04,16,21,49.80
2006,02,04,16,22,49.60
2006,02,04,16,23,50.30
2006,02,04,16,24,48.20
2006,02,04,16,25,39.10
2006,02,04,16,26,36.80
2006,02,04,16,27,49.40
2006,02,04,16,28,44.80
2006,02,04,16,29,58.00
2006,02,04,16,30,49.20
2006,02,04,16,31,50.40
2006,02,04,16,32,49.60
2006,02,04,16,33,57.30
2006,02,04,16,34,48.50
2006,02,04,16,35,49.80
2006,02,04,16,36,52.40
2006,02,04,16,37,53.00
2006,02,04,16,38,55.50
2006,02,04,16,39,54.40
2006,02,04,16,40,49.40
2006,02,04,16,41,34.40
2006,02,04,16,42,40.60
2006,02,04,16,43,55.20
2006,02,04,16,44,46.40
2006,02,04,16,45,39.70
2006,02,04,16,46,44.30
2006,02,04,16,47,46.40
2006,02,04,16,48,47.60
2006,02,04,16,49,39.90
2006,02,04,16,50,44.90
2006,02,04,16,51,41.60
2006,02,04,16,52,51.00
2006,02,04,16,53,47.00
2006,02,04,16,54,40.10
2006,02,04,16,55,42.00
2006,02,04,16,56,41.00
2006,02,04,16,57,42.40
2006,02,04,16,58,47.00
2006,02,04,16,59,51.20
2006,02,04,17,00,44.90
2006,02,04,17,01,36.70
2006,02,04,17,02,32.70
2006,02,04,17,03,49.80
2006,02,04,17,04,42.70
2006,02,04,17,05,42.00
2006,02,04,17,06,42.70
2006,02,04,17,07,38.80
2006,02,04,17,08,33.90
2006,02,04,17,09,45.20
2006,02,04,17,10,40.30
2006,02,04,17,11,36.60
2006,02,04,17,12,49.90
2006,02,04,17,13,34.10
2006,02,04,17,14,43.20
2006,02,04,17,15,42.30
2006,02,04,17,16,40.20
2006,02,04,17,17,31.10
2006,02,04,17,18,41.80
2006,02,04,17,19,36.60
2006,02,04,17,20,27.10
2006,02,04,17,21,26.50
2006,02,04,17,22,39.40
2006,02,04,17,23,46.80
2006,02,04,17,24,43.40
2006,02,04,17,25,24.80
2006,02,04,17,26,35.80
2006,02,04,17,27,37.40
2006,02,04,17,28,29.60
2006,02,04,17,29,44.20
2006,02,04,17,30,42.90
2006,02,04,17,31,42.20
2006,02,04,17,32,37.20
2006,02,04,17,33,42.70
2006,02,04,17,34,27.80
2006,02,04,17,35,21.50
2006,02,04,17,36,26.10
2006,02,04,17,37,45.10
2006,02,04,17,38,38.30
2006,02,04,17,39,34.00
2006,02,04,17,40,44.00
2006,02,04,17,41,34.40
2006,02,04,17,42,36.70
2006,02,04,17,43,28.20
2006,02,04,17,44,36.50
2006,02,04,17,45,28.60
2006,02,04,17,46,29.10
2006,02,04,17,47,27.20
2006,02,04,17,48,39.00
2006,02,04,17,49,30.20
2006,02,04,17,50,28.50
2006,02,04,17,51,28.60
2006,02,04,17,52,34.10
2006,02,04,17,53,33.00
2006,02,04,17,54,35.50
2006,02,04,17,55,38.60
2006,02,04,17,56,21.70
2006,02,04,17,57,31.20
2006,02,04,17,58,28.80
2006,02,04,17,59,35.90
2006,02,04,18,00,29.80
2006,02,04,18,01,37.30
2006,02,04,18,02,29.20
2006,02,04,18,03,22.60
2006,02,04,18,04,36.30
2006,02,04,18,05,32.30
2006,02,04,18,06,22.10
2006,02,04,18,07,32.50
2006,02,04,18,08,27.40
2006,02,04,18,09,35.10
2006,02,04,18,10,28.40
2006,02,04,18,11,25.90
2006,02,04,18,12,25.10
2006,02,04,18,13,23.20
2006,02,04,18,14,38.10
2006,02,04,18,15,28.70
2006,02,04,18,16,18.80
2006,02,04,18,17,34.50
2006,02,04,18,18,42.90
2006,02,04,18,19,31.40
2006,02,04,18,20,35.50
2006,02,04,18,21,29.30
2006,02,04,18,22,33.60
2006,02,04,18,23,39.40
2006,02,04,18,24,37.90
2006,02,04,18,25,25.70
2006,02,04,18,26,32.30
2006,02,04,18,27,32.20
2006,02,04,18,28,36.80
2006,02,04,18,29,27.70
2006,02,04,18,30,34.50
2006,02,04,18,31,32.30
2006,02,04,18,32,31.60
2006,02,04,18,33,32.60
2006,02,04,18,34,31.40
2006,02,04,18,35,28.30
2006,02,04,18,36,32.50
2006,02,04,18,37,40.00
2006,02,04,18,38,36.70
2006,02,04,18,39,37.40
2006,02,04,18,40,36.90
2006,02,04,18,41,31.20
2006,02,04,18,42,32.20
2006,02,04,18,43,20.20
2006,02,04,18,44,26.10
2006,02,04,18,45,28.10
2006,02,04,18,46,41.10
2006,02,04,18,47,39.50
2006,02,04,18,48,31.80
2006,02,04,18,49,29.60
2006,02,04,18,50,24.80
2006,02,04,18,51,25.40
2006,02,04,18,52,27.60
2006,02,04,18,53,30.10
2006,02,04,18,54,24.80
2006,02,04,18,55,20.00
2006,02,04,18,56,32.60
2006,02,04,18,57,24.40
2006,02,04,18,58,20.40
2006,02,04,18,59,24.60
2006,02,04,19,00,30.10
2006,02,04,19,01,21.10
2006,02,04,19,02,15.20
2006,02,04,19,03,17.10
2006,02,04,19,04,14.20
2006,02,04,19,05,19.80
2006,02,04,19,06,16.20
2006,02,04,19,07,25.70
2006,02,04,19,08,16.80
2006,02,04,19,09,19.60
2006,02,04,19,10,16.50
2006,02,04,19,11,18.30
2006,02,04,19,12,17.60
2006,02,04,19,13,22.60
2006,02,04,19,14,23.90
2006,02,04,19,15,12.60
2006,02,04,19,16,23.00
2006,02,04,19,17,32.60
2006,02,04,19,18,20.00
2006,02,04,19,19,18.00
2006,02,04,19,20,17.40
2006,02,04,19,21,21.10
2006,02,04,19,22,18.50
2006,02,04,19,23,29.80
2006,02,04,19,24,26.00
2006,02,04,19,25,21.60
2006,02,04,19,26,19.50
2006,02,04,19,27,19.50
2006,02,04,19,28,11.10
2006,02,04,19,29,21.10
2006,02,04,19,30,21.10
2006,02,04,19,31,22.40